User: anonymous   Login
Location: Unspecified
(0.0000°N, 0.0000°E)
Time: 07:02:39
(UTC+00:00)
Language:

Hubble Space Telescope - Orbit

View from above orbital plane
View from above orbital plane
View from above satellite
View from above satellite

Ground track
Ground track

The orbit data is extracted from the following two-line orbital elements,

1 20580U 90037B   20224.71136830  .00000379  00000-0  12053-4 0  9997
2 20580  28.4702 314.1801 0002626 331.5904 164.2439 15.09416311464418
Epoch (UTC): 11 August 2020 17:04:22
Eccentricity: 0.0002626
inclination: 28.4702°
perigee height: 536 km
apogee height: 540 km
right ascension of ascending node: 314.1801°
argument of perigee: 331.5904°
revolutions per day: 15.09416311
mean anomaly at epoch: 164.2439°
orbit number at epoch: 46441

The dashed part of the orbit path shows where the satellite is in the earth's shadow,  

DLR